Weather in Kalach-na-Donu

Russia / Volgograd Oblast     48°40′55″N   43°32′17″E
temp.,
°C
wind,
m/s
gust,
m/s
humid.,
%
clouds,
%
prec.,
mm/h
press.,
hPa
HPBL,
m
18 january, mon
mon1800:00−13ne5990100 0.0 1014250
03:00−12ene5893100 0.2 1014272
06:00−12ene6995100 2.6 1014336
09:00−12ene5894100 5.6 1014280
12:00−11ene4693100 0.7 1014323
15:00−10ne4593100 1.1 1014270
18:00−13ene2296100 0.1 101621
21:00−14ne1196100 0.2 101620
19 january, tue
tue1900:00−16nw119791 0.1 101720
03:00−16wnw119792 0.1 101820
06:00−14ssw2295100 0.0 101946
09:00−15w349599 0.0 102087
12:00−13wsw349299 0.0 1019259
15:00−13wsw349296 0.0 1018247
18:00−14w2296100 0.1 101929
21:00−15wnw239698 0.2 102038
20 january, wed
wed2000:00−19wnw339661 0.0 102122
03:00−21w239735 0.0 102220
06:00−22w34970 0.0 102328
09:00−21w34950 0.0 102479
12:00−17w35920 0.0 1025239
15:00−16w36927 0.0 1025269
18:00−20w339623 0.0 102721
21:00−21wnw239536 0.0 102820
21 january, thu
thu2100:00−22wnw23956 0.0 102921
03:00−22wnw23953 0.0 103020
06:00−23wnw22960 0.0 103120
09:00−21w22940 0.0 103221
12:00−16w34880 0.0 1032223
15:00−15wsw24910 0.0 1031218
18:00−19sw22940 0.0 103120
21:00−19ssw33946 0.0 103126
22 january, fri
fri2200:00−17ssw34940 0.0 103067
03:00−16sw37914 0.0 1028102
06:00−9sw489486 0.1 1026249
09:00−7sw489686 0.1 1026185
12:000sw61199100 0.0 1025437
15:00+1wsw611100100 0.0 1024424
18:00+1wsw51196100 0.0 1025365
21:00+1sw51196100 0.0 1026331